Torna al catalogo

STARLINK-3673

AttivoComunicazioniVLEO
NORAD 52093·PAYLOAD·🇺🇸 United States

Lanciato Mar 19, 2022 da Cape Canaveral Space Force Station

Loading…

Prossimi Passaggi (prossime 24 ore)

TLE

AggiornatoSource: CelesTrak SupGP

Epoca: Sep 15, 2026, 02:04 UTC

1 52093C 22029F   26258.08659722  .00013941  00000+0  41178-3 0  2585
2 52093  53.1588 302.8185 0001338  92.0716  90.7188 15.34392368    16

Traccia STARLINK-3673 in tempo reale con AllMySat

Download on the App Store